This is the latest recevied weather packets stored in our database for station/object KC0RPY. If no packets are shown the sender has not sent any weather packets the latest 10 day(s).
| Time | Temp. | Humidity | Pressure | Rain* | Wind** | Luminosity | Snow |
|---|---|---|---|---|---|---|---|
| 1778045742 | 8.33° C | 78% | 1016 hPa | 0 mm | - | 0 W/m² | - |
| 1778045440 | 8.89° C | 77% | 1016 hPa | 0 mm | - | 0 W/m² | - |
| 1778045139 | 8.89° C | 75% | 1016 hPa | 0 mm | - | 0 W/m² | - |
| 1778044836 | 8.89° C | 76% | 1016 hPa | 0 mm | - | 0 W/m² | - |
| 1778044533 | 8.89° C | 75% | 1016 hPa | 0 mm | - | 0 W/m² | - |
| 1778044229 | 9.44° C | 75% | 1016 hPa | 0 mm | - | 0 W/m² | - |
| 1778043927 | 9.44° C | 72% | 1016 hPa | 0 mm | - | 0 W/m² | - |
| 1778043625 | 9.44° C | 72% | 1016 hPa | 0 mm | - | 0 W/m² | - |
| 1778043321 | 9.44° C | 74% | 1016 hPa | 0 mm | - | 0 W/m² | - |
| 1778043018 | 9.44° C | 73% | 1016 hPa | 0 mm | - | 0 W/m² | - |
| 1778042715 | 9.44° C | 73% | 1016 hPa | 0 mm | - | 0 W/m² | - |
| 1778042412 | 9.44° C | 73% | 1016 hPa | 0 mm | - | 0 W/m² | - |
| 1778042109 | 10° C | 72% | 1016 hPa | 0 mm | - | 0 W/m² | - |
| 1778041807 | 10° C | 70% | 1015.7 hPa | 0 mm | - | 0 W/m² | - |
| 1778041507 | 10° C | 70% | 1015.7 hPa | 0 mm | - | 0 W/m² | - |
| 1778041204 | 10° C | 70% | 1015.3 hPa | 0 mm | - | 0 W/m² | - |
| 1778040903 | 10° C | 73% | 1015.3 hPa | 0 mm | - | 0 W/m² | - |
| 1778040599 | 10° C | 84% | 1015 hPa | 0 mm | - | 0 W/m² | - |
| 1778040297 | 10° C | 86% | 1015.3 hPa | 0 mm | - | 0 W/m² | - |
| 1778039992 | 10° C | 85% | 1015.7 hPa | 0 mm | - | 0 W/m² | - |
| 1778039690 | 10° C | 85% | 1015 hPa | 0 mm | - | 0 W/m² | - |
| 1778039386 | 10° C | 86% | 1015 hPa | 0 mm | - | 0 W/m² | - |
| 1778039084 | 10° C | 85% | 1015 hPa | 0 mm | - | 0 W/m² | - |
| 1778038781 | 10° C | 84% | 1014.5 hPa | 0 mm | - | 0 W/m² | - |
| 1778038478 | 10.56° C | 82% | 1015 hPa | 0 mm | - | 0 W/m² | - |
* Rain latest hour (hover to see other rain measurements)
** Current wind speed in m/s (hover to see current wind gust speed)